| time (UTC) | temp F | wind direction | speed knots | gust knots | rain 1hr in | rain 24hr in | rain mn in | humidity % | barometer mb |
| 20260906111931 | 100 | 5 | 0.9 | 1.7 | 0.00 | 0.00 | 0.00 | 3 | 996.4 |
| 20260906110432 | 97 | 212 | 1.7 | 2.6 | 0.00 | 0.00 | 0.00 | 3 | 996.7 |
| 20260906104932 | 96 | 195 | 1.7 | 3.5 | 0.00 | 0.00 | 0.00 | 3 | 996.6 |
| 20260906103431 | 89 | 83 | 1.7 | 2.6 | 0.00 | 0.00 | 0.00 | 4 | 996.8 |
| 20260906101931 | 93 | 293 | 2.6 | 3.5 | 0.00 | 0.00 | 0.00 | 3 | 996.8 |
| 20260906100432 | 92 | 35 | 0.0 | 3.5 | 0.00 | 0.00 | 0.00 | 4 | 996.8 |
| 20260906094931 | 91 | 33 | 1.7 | 2.6 | 0.00 | 0.00 | 0.00 | 3 | 996.7 |
| 20260906093431 | 87 | 7 | 0.0 | 0.9 | 0.00 | 0.00 | 0.00 | 4 | 996.9 |
| 20260906091931 | 91 | 28 | 0.0 | 1.7 | 0.00 | 0.00 | 0.00 | 4 | 997.1 |
| 20260906090432 | 86 | 58 | 0.9 | 3.5 | 0.00 | 0.00 | 0.00 | 4 | 997.1 |
| 20260906084931 | 86 | 103 | 0.0 | 1.7 | 0.00 | 0.00 | 0.00 | 4 | 997.0 |
| 20260906083431 | 87 | 56 | 2.6 | 3.5 | 0.00 | 0.00 | 0.00 | 5 | 997.1 |
| 20260906081932 | 89 | 21 | 0.9 | 1.7 | 0.00 | 0.00 | 0.00 | 4 | 996.9 |
| 20260906080432 | 83 | 11 | 0.0 | 2.6 | 0.00 | 0.00 | 0.00 | 5 | 996.9 |
| 20260906074931 | 84 | 35 | 0.0 | 0.0 | 0.00 | 0.00 | 0.00 | 5 | 996.8 |
| 20260906073431 | 86 | 18 | 0.0 | 0.9 | 0.00 | 0.00 | 0.00 | 5 | 996.7 |
| 20260906071932 | 79 | 36 | 0.0 | 0.9 | 0.00 | 0.00 | 0.00 | 6 | 996.8 |
| 20260906070432 | 80 | 36 | 0.0 | 0.0 | 0.00 | 0.00 | 0.00 | 5 | 996.6 |
| 20260906064931 | 82 | 41 | 0.0 | 0.9 | 0.00 | 0.00 | 0.00 | 5 | 996.5 |
| 20260906063431 | 76 | 39 | 0.0 | 0.0 | 0.00 | 0.00 | 0.00 | 6 | 996.4 |
| 20260906061932 | 76 | 24 | 0.0 | 0.0 | 0.00 | 0.00 | 0.00 | 6 | 996.4 |
| 20260906060432 | 75 | 42 | 0.0 | 0.0 | 0.00 | 0.00 | 0.00 | 6 | 996.6 |
| 20260906054931 | 71 | 38 | 0.0 | 0.0 | 0.00 | 0.00 | 0.00 | 7 | 996.4 |
| 20260906053431 | 70 | 36 | 0.0 | 0.0 | 0.00 | 0.00 | 0.00 | 7 | 996.6 |
| 20260906051932 | 66 | 15 | 0.0 | 0.0 | 0.00 | 0.00 | 0.00 | 8 | 996.1 |
| 20260906050432 | 65 | 14 | 0.0 | 0.0 | 0.00 | 0.00 | 0.00 | 8 | 996.3 |
| 20260906044932 | 64 | 14 | 0.0 | 0.0 | 0.00 | 0.00 | 0.00 | 8 | 996.3 |
| 20260906043431 | 64 | 358 | 0.9 | 0.9 | 0.00 | 0.00 | 0.00 | 8 | 996.3 |
| 20260906041932 | 64 | 20 | 0.0 | 0.0 | 0.00 | 0.00 | 0.00 | 8 | 996.2 |
| 20260906040432 | 64 | 359 | 0.0 | 0.0 | 0.00 | 0.00 | 0.00 | 8 | 996.0 |
| 20260906034931 | 65 | 10 | 0.0 | 0.0 | 0.00 | 0.00 | 0.00 | 8 | 996.0 |
| 20260906033431 | 66 | 8 | 0.0 | 0.0 | 0.00 | 0.00 | 0.00 | 8 | 995.8 |
| 20260906031932 | 67 | 20 | 0.0 | 0.0 | 0.00 | 0.00 | 0.00 | 8 | 995.6 |
| 20260906030432 | 68 | 209 | 2.6 | 3.5 | 0.00 | 0.00 | 0.00 | 8 | 995.8 |
| 20260906024931 | 68 | 141 | 1.7 | 2.6 | 0.00 | 0.00 | 0.00 | 7 | 995.8 |
| 20260906023431 | 66 | 12 | 0.0 | 0.0 | 0.00 | 0.00 | 0.00 | 8 | 995.7 |
| 20260906021932 | 68 | 319 | 0.9 | 1.7 | 0.00 | 0.00 | 0.00 | 7 | 995.7 |
| 20260906020432 | 67 | 350 | 0.0 | 0.9 | 0.00 | 0.00 | 0.00 | 8 | 995.8 |
| 20260906014931 | 67 | 1 | 0.0 | 0.9 | 0.00 | 0.00 | 0.00 | 8 | 995.8 |
| 20260906013431 | 67 | 5 | 0.0 | 0.9 | 0.00 | 0.00 | 0.00 | 8 | 995.8 |
| 20260906011932 | 67 | 4 | 0.0 | 0.0 | 0.00 | 0.00 | 0.00 | 8 | 995.7 |
| 20260906010432 | 68 | 8 | 0.0 | 0.0 | 0.00 | 0.00 | 0.00 | 8 | 995.8 |
| 20260906004931 | 69 | 211 | 1.7 | 2.6 | 0.00 | 0.00 | 0.00 | 7 | 995.8 |
| 20260906003431 | 68 | 17 | 0.0 | 0.0 | 0.00 | 0.00 | 0.00 | 8 | 995.7 |
| 20260906001932 | 69 | 93 | 0.9 | 1.7 | 0.00 | 0.00 | 0.00 | 8 | 995.9 |
| 20260906000433 | 69 | 2 | 0.9 | 1.7 | 0.00 | 0.00 | 0.00 | 8 | 995.9 |
| 20260905234931 | 69 | 280 | 1.7 | 3.5 | 0.00 | 0.00 | 0.00 | 8 | 995.6 |
| 20260905233431 | 69 | 240 | 1.7 | 1.7 | 0.00 | 0.00 | 0.00 | 7 | 995.7 |
| 20260905231932 | 69 | 20 | 0.0 | 0.0 | 0.00 | 0.00 | 0.00 | 7 | 995.8 |
| 20260905230432 | 70 | 344 | 0.9 | 1.7 | 0.00 | 0.00 | 0.00 | 7 | 996.0 |
| 20260905224932 | 71 | 19 | 0.0 | 0.0 | 0.00 | 0.00 | 0.00 | 7 | 996.0 |
| 20260905223431 | 70 | 264 | 0.9 | 2.6 | 0.00 | 0.00 | 0.00 | 7 | 995.7 |
| 20260905221932 | 72 | 275 | 0.9 | 1.7 | 0.00 | 0.00 | 0.00 | 7 | 995.7 |
| 20260905220432 | 72 | 206 | 1.7 | 3.5 | 0.00 | 0.00 | 0.00 | 7 | 995.8 |
| 20260905214931 | 72 | 162 | 1.7 | 2.6 | 0.00 | 0.00 | 0.00 | 7 | 995.6 |
| 20260905213431 | 72 | 80 | 0.0 | 1.7 | 0.00 | 0.00 | 0.00 | 7 | 995.6 |
| 20260905211932 | 72 | 15 | 0.0 | 0.0 | 0.00 | 0.00 | 0.00 | 7 | 995.6 |
| 20260905210431 | 74 | 24 | 0.0 | 0.0 | 0.00 | 0.00 | 0.00 | 6 | 995.2 |
| 20260905204931 | 75 | 313 | 0.9 | 1.7 | 0.00 | 0.00 | 0.00 | 6 | 995.3 |
| 20260905203431 | 73 | 19 | 0.0 | 1.7 | 0.00 | 0.00 | 0.00 | 7 | 995.5 |
| 20260905201932 | 74 | 15 | 0.0 | 0.9 | 0.00 | 0.00 | 0.00 | 7 | 995.6 |
| 20260905200431 | 75 | 32 | 0.0 | 0.9 | 0.00 | 0.00 | 0.00 | 6 | 995.2 |
| 20260905194931 | 76 | 317 | 1.7 | 3.5 | 0.00 | 0.00 | 0.00 | 6 | 995.3 |
| 20260905193431 | 77 | 242 | 1.7 | 2.6 | 0.00 | 0.00 | 0.00 | 6 | 995.0 |
| 20260905191932 | 77 | 85 | 1.7 | 2.6 | 0.00 | 0.00 | 0.00 | 6 | 995.0 |
| 20260905190431 | 77 | 243 | 2.6 | 4.3 | 0.00 | 0.00 | 0.00 | 6 | 994.7 |
| 20260905184931 | 78 | 228 | 1.7 | 4.3 | 0.00 | 0.00 | 0.00 | 6 | 994.5 |
| 20260905183431 | 79 | 264 | 1.7 | 7.0 | 0.00 | 0.00 | 0.00 | 5 | 994.5 |
| 20260905181932 | 80 | 225 | 2.6 | 4.3 | 0.00 | 0.00 | 0.00 | 6 | 994.2 |
| 20260905180431 | 80 | 265 | 0.9 | 1.7 | 0.00 | 0.00 | 0.00 | 6 | 994.3 |
| 20260905174931 | 81 | 349 | 0.0 | 0.9 | 0.00 | 0.00 | 0.00 | 6 | 994.1 |
| 20260905173431 | 82 | 29 | 0.0 | 0.9 | 0.00 | 0.00 | 0.00 | 5 | 994.1 |
| 20260905171932 | 84 | 34 | 0.0 | 2.6 | 0.00 | 0.00 | 0.00 | 5 | 993.8 |
| 20260905170431 | 85 | 16 | 0.9 | 1.7 | 0.00 | 0.00 | 0.00 | 5 | 994.1 |
| 20260905164931 | 86 | 29 | 0.9 | 2.6 | 0.00 | 0.00 | 0.00 | 5 | 993.7 |
| 20260905163431 | 88 | 341 | 0.0 | 4.3 | 0.00 | 0.00 | 0.00 | 4 | 993.5 |
| 20260905161932 | 88 | 317 | 1.7 | 3.5 | 0.00 | 0.00 | 0.00 | 4 | 993.7 |
| 20260905160432 | 89 | 43 | 2.6 | 4.3 | 0.00 | 0.00 | 0.00 | 4 | 993.6 |
| 20260905154931 | 90 | 296 | 3.5 | 4.3 | 0.00 | 0.00 | 0.00 | 4 | 993.4 |
| 20260905153431 | 91 | 345 | 0.0 | 4.3 | 0.00 | 0.00 | 0.00 | 4 | 993.2 |
| 20260905151932 | 91 | 324 | 1.7 | 5.2 | 0.00 | 0.00 | 0.00 | 4 | 993.5 |
| 20260905150432 | 89 | 284 | 2.6 | 7.0 | 0.00 | 0.00 | 0.00 | 4 | 993.2 |
| 20260905144931 | 92 | 344 | 4.3 | 10.4 | 0.00 | 0.00 | 0.00 | 4 | 993.2 |
| 20260905143431 | 93 | 285 | 1.7 | 2.6 | 0.00 | 0.00 | 0.00 | 4 | 993.4 |
| 20260905141932 | 94 | 291 | 3.5 | 7.8 | 0.00 | 0.00 | 0.00 | 4 | 993.7 |
| 20260905140431 | 93 | 331 | 0.0 | 2.6 | 0.00 | 0.00 | 0.00 | 4 | 993.8 |
| 20260905134931 | 93 | 20 | 0.9 | 1.7 | 0.00 | 0.00 | 0.00 | 4 | 993.8 |
| 20260905133431 | 94 | 317 | 3.5 | 5.2 | 0.00 | 0.00 | 0.00 | 4 | 994.0 |
| 20260905131932 | 95 | 244 | 3.5 | 7.8 | 0.00 | 0.00 | 0.00 | 4 | 993.9 |
| 20260905130431 | 95 | 346 | 0.0 | 4.3 | 0.00 | 0.00 | 0.00 | 3 | 994.2 |
| 20260905124931 | 91 | 313 | 0.9 | 2.6 | 0.00 | 0.00 | 0.00 | 4 | 994.3 |
| 20260905123431 | 95 | 6 | 2.6 | 8.7 | 0.00 | 0.00 | 0.00 | 3 | 994.5 |
| 20260905121932 | 95 | 358 | 1.7 | 4.3 | 0.00 | 0.00 | 0.00 | 3 | 994.6 |
| 20260905120432 | 96 | 316 | 0.9 | 3.5 | 0.00 | 0.00 | 0.00 | 3 | 994.6 |
| 20260905114931 | 93 | 352 | 2.6 | 3.5 | 0.00 | 0.00 | 0.00 | 3 | 994.7 |
| 20260905113431 | 94 | 324 | 5.2 | 8.7 | 0.00 | 0.00 | 0.00 | 3 | 995.0 |